Regional Weather Roundup
Issued by NWS Wilmington, NC

Home | Current Version | Previous Version | Text Only | Print | Product List | Glossary On
Versions: 1 2 3 4 5 6 7 8 9 10 11 12 13 14 15 16 17 18 19 20 21 22 23 24 25 26 27 28 29 30 31 32 33 34 35 36 37 38 39 40 41 42 43 44 45 46 47 48 49 50
017
ASUS42 KILM 021113
RWRILM
RWRILM
REGIONAL HOURLY WEATHER ROUNDUP
NATIONAL WEATHER SERVICE WILMINGTON NC
700 AM EDT MON MAY 02 2016

NOTE: "FAIR" INDICATES FEW OR NO CLOUDS BELOW 12,000 FEET WITH NO
SIGNIFICANT WEATHER AND/OR OBSTRUCTIONS TO VISIBILITY.

...............WFO WILMINGTON COUNTY WARNING AREA...............

......COASTAL NC AND SC COUNTIES......

CITY           SKY/WX    TMP DP  RH WIND       PRES   REMARKS
WILMINGTON     MOCLDY    70  69  97 S7        30.04R
N MYRTLE BEACH MOCLDY    71  69  93 SW8       30.03S
MYRTLE BEACH   MOCLDY    72  64  78 SW8         N/A

......INLAND NC AND SC COUNTIES.......

CITY           SKY/WX    TMP DP  RH WIND       PRES   REMARKS
LUMBERTON      CLOUDY    70  68  93 SW8       30.02R
ELIZABETHTOWN  CLOUDY    69  69 100 S7        30.02R FOG
WHITEVILLE     FOG       69  68  96 S3        30.02S VSB 1/4
FLORENCE       CLOUDY    70  68  93 S7        30.03R FOG
DARLINGTON     NOT AVBL
KINGSTREE      MOCLDY    66  64  94 SE5       30.04S FOG
HARTSVILLE     FAIR     N/A N/A N/A SW3       30.03R
BENNETTSVILLE  FAIR      70  68  94 SW3       30.02R
CONWAY         FOG       64  64 100 S5        30.04S VSB 1/4
GEORGETOWN     FAIR      64  64 100 CALM      30.06R FOG
MARION         FOG       66  66 100 SW6       30.04R VSB 1/2

....................REST OF NORTH CAROLINA......................

.........EASTERN NC.........

CITY           SKY/WX    TMP DP  RH WIND       PRES   REMARKS
CAPE HATTERAS  CLOUDY    68  67  96 SW7       30.03S
JACKSONVILLE   CLOUDY    68  68 100 SW9       30.03R FOG
MOREHEAD CITY  PTCLDY    69  68  96 SW9       30.04R
KENANSVILLE    CLOUDY    68  67  98 SW5       30.03R FOG
NEW BERN       CLOUDY    68  66  93 S7        30.03R
ELIZABETH CITY CLOUDY    68  66  93 SW10      29.99R

.........CENTRAL NC.........

CITY           SKY/WX    TMP DP  RH WIND       PRES   REMARKS
RALEIGH DURHAM CLOUDY    67  65  93 SW5       30.00R
ROCKY MOUNT    CLOUDY    68  66  93 S7        30.00R
ROANOKE RAPIDS NOT AVBL
FAYETTEVILLE   PTCLDY    69  66  90 S7        30.01R
HOFFMAN        NOT AVBL

.........WESTERN NC.........

CITY           SKY/WX    TMP DP  RH WIND       PRES   REMARKS
CHARLOTTE      CLOUDY    67  64  90 CALM      30.03R
GREENSBORO     CLOUDY    65  64  97 SW6       30.00R
HICKORY        NOT AVBL
BOONE          NOT AVBL
ASHEVILLE      NOT AVBL

.....................REST OF SOUTH CAROLINA.....................

.........EASTERN SC.........

CITY           SKY/WX    TMP DP  RH WIND       PRES   REMARKS
CHARLESTON     MOCLDY    70  68  93 S3        30.04R FOG
BEAUFORT MCAS  MOCLDY    73  71  93 S3        30.03S
HILTON HEAD    CLEAR     73  70  88 S7        30.05R

.........CENTRAL SC.........

CITY           SKY/WX    TMP DP  RH WIND       PRES   REMARKS
COLUMBIA       CLOUDY    68  65  90 SW3       30.02S
ORANGEBURG     CLOUDY    68  67  96 W3        30.05R
SUMTER SHAW    NOT AVBL

.........WESTERN SC.........

CITY           SKY/WX    TMP DP  RH WIND       PRES   REMARKS
GREENVILLE     NOT AVBL
ROCK HILL        N/A    N/A N/A N/A MISG      30.03R
ANDERSON       CLOUDY    67  67 100 CALM      30.03R FOG
CLEMSON        NOT AVBL
GREENWOOD      CLOUDY    69  64  84 S6        30.04R


...................COASTAL AND OFFSHORE REPORTS..................

................LOCAL PIERS AND NC RESERVE................


STATION/POSITION TIME  SKY/WX   TEMP    WIND        PRES    VSBY
                                AIR SEA DIR/SP/G
                 (UTC)          (F)     (DEG/KT/KT) (MB)    (MI)
JOHNY MRCER PIER 1000            69 69  210/  7/  8 1015.8S
NC RESRV MASNBRO NOT AVBL
OCEAN CREST PIER NOT AVBL
SPRINGMAID  PIER 1000            71 70  200/  4/  5 1016.7R


................COASTAL AND OFFSHORE BUOYS................


STATION/POSITION TIME  SKY/WX   TEMP    WIND        PRES    VSBY
                                AIR SEA DIR/SP/G
                 (UTC)          (F)     (DEG/KT/KT) (MB)    (MI)
DIMNDSHOAL 41025 1050            74 73  220/ 12/ 16 1017.0R
WVE H/P(F/S)=  4/ 5 SWL H/P/D(F/S/D)=  3/ 90/10

CAPE LOOKOUT     1100            70     220/  8/ 12 1016.9R
ONSLOW BAY 41036 NOT AVBL
ONSLOW BAY 41064 NOT AVBL
ONSLOW BAY 41159 1025               69                N/A
WVE H/P(F/S)=  4/10 SWL H/P/D(F/S/D)=  2/100/11

5SE WRITBC 41038 1008            70 68  220/  6/ 10 1017.4R
MASNBO INL 41110 1006               68                N/A
WVE H/P(F/S)=  3/10

WILM HARBR 41108 1026               69                N/A
WVE H/P(F/S)=  2/ 5

27SE WRITB 41037 1008            73 72  210/ 12/ 16 1016.8S
FRYING PAN 41013 1000            74 72  200/ 10/ 12 1017.0F
SUNST NRSH 41024 1008            70 69  220/  6/  8 1016.5R
CAPRS NRSH 41029 1008            72 72  200/  8/ 10 1016.8R
EDISTO     41004 1050            75 73  200/  6/  8 1017.2R
WVE H/P(F/S)=  3/ 5 SWL H/P/D(F/S/D)=  3/ 5



..........OFFSHORE BUOYS BEYOND 100 NM OFFSHORE...........
.....IN A TRIANGLE---HAT TO BERMUDA TO BAHAMAS TO HAT.....


STATION/POSITION TIME  SKY/WX   TEMP    WIND        PRES    VSBY
                                AIR SEA DIR/SP/G
                 (UTC)          (F)     (DEG/KT/KT) (MB)    (MI)
150E HAT   41001 NOT AVBL
W BERMUDA  41048 1050            69 70  180/  4/ 10 1021.7R
WVE H/P(F/S)=  5/11 SWL H/P/D(F/S/D)=  5/ 30/11

ATLANTIC S 41049 1050            73 75  240/  4/  6 1020.0R
WVE H/P(F/S)=  4/10 SWL H/P/D(F/S/D)=  3/ 50/10

E BAHAMAS  41046 1050            78 79   70/ 12/ 14 1018.1R
WVE H/P(F/S)=  4/ 8 SWL H/P/D(F/S/D)=  3/ 90/ 8

NE BAHAMAS 41047 1050            75 77  110/ 10/ 12 1019.9R
WVE H/P(F/S)=  5/ 8 SWL H/P/D(F/S/D)=  5/ 10/ 8

120E CANVRL41010 1020            77 79  150/ 14/ 16 1017.5R

END




USA.gov is the U.S. government's official web portal to all federal, state and local government web resources and services.